,,,PA_Meas_PMT16A,,PR_Meas_QMR101_102,,RH_Meas_QMH101,,SR_Meas_QMS101,,TA_Meas_QMH101,,GenWind,,GenWind,
date,time,status,PA,status,PR,status,RH,status,SR,status,TA,status,DirAvg,status,SpdAvg,
2010-11-08, 00:00:04,VALID,1004.99,VALID,0,INVALID,163.723,VALID,0,VALID,23.6841,VALID,6,VALID,0.505859,
2010-11-08, 00:01:04,VALID,1004.97,VALID,0,INVALID,163.701,VALID,0,VALID,23.6646,VALID,6,VALID,0.465234,
2010-11-08, 00:02:04,VALID,1004.98,VALID,0,INVALID,163.693,VALID,0,VALID,23.6628,VALID,6,VALID,0.415625,
2010-11-08, 00:03:04,VALID,1004.98,VALID,0,INVALID,163.708,VALID,0,VALID,23.6823,VALID,6,VALID,0.263281,
2010-11-08, 00:04:04,VALID,1004.99,VALID,0,INVALID,163.716,VALID,0.100563,VALID,23.6823,VALID,6,VALID,0.158984,
2010-11-08, 00:05:04,VALID,1004.97,VALID,0,INVALID,163.723,VALID,0,VALID,23.6416,VALID,6,VALID,0,
2010-11-08, 00:06:04,VALID,1004.94,VALID,0,INVALID,163.716,VALID,0.100563,VALID,23.6823,VALID,6,VALID,0,
2010-11-08, 00:07:04,VALID,1004.91,VALID,0,INVALID,163.708,VALID,0.100563,VALID,23.6416,VALID,6,VALID,0,
2010-11-08, 00:08:04,VALID,1004.9,VALID,0,INVALID,163.723,VALID,0,VALID,23.6221,VALID,6,VALID,0,
2010-11-08, 00:09:04,VALID,1004.89,VALID,0,INVALID,163.723,VALID,0.100563,VALID,23.6044,VALID,6,VALID,0,
2010-11-08, 00:10:04,VALID,1004.87,VALID,0,INVALID,163.701,VALID,0.100563,VALID,23.6044,VALID,6,VALID,0,
2010-11-08, 00:11:04,VALID,1004.86,VALID,0,INVALID,163.716,VALID,0.100563,VALID,23.585,VALID,6,VALID,0,
2010-11-08, 00:12:04,VALID,1004.84,VALID,0,INVALID,163.701,VALID,0,VALID,23.5655,VALID,6,VALID,0,
2010-11-08, 00:13:04,VALID,1004.83,VALID,0,INVALID,163.716,VALID,0,VALID,23.5655,VALID,6,VALID,0,
2010-11-08, 00:14:04,VALID,1004.82,VALID,0,INVALID,163.723,VALID,0.100563,VALID,23.5248,VALID,6,VALID,0.301562,
2010-11-08, 00:15:04,VALID,1004.78,VALID,0,INVALID,163.739,VALID,0.100563,VALID,23.546,VALID,6,VALID,0.326562,
2010-11-08, 00:16:04,VALID,1004.79,VALID,0,INVALID,163.731,VALID,0,VALID,23.5053,VALID,6,VALID,0.426172,
2010-11-08, 00:17:04,VALID,1004.81,VALID,0,INVALID,163.708,VALID,0,VALID,23.546,VALID,6,VALID,0.273438,
2010-11-08, 00:18:04,VALID,1004.75,VALID,0,INVALID,163.723,VALID,0,VALID,23.5248,VALID,6,VALID,0.0121094,
2010-11-08, 00:19:04,VALID,1004.74,VALID,0,INVALID,163.716,VALID,0,VALID,23.5443,VALID,6,VALID,0,
2010-11-08, 00:20:04,VALID,1004.71,VALID,0,INVALID,163.739,VALID,0.100563,VALID,23.5655,VALID,6,VALID,0,
2010-11-08, 00:21:04,VALID,1004.73,VALID,0,INVALID,163.708,VALID,0,VALID,23.5443,VALID,6,VALID,0,
2010-11-08, 00:22:04,VALID,1004.69,VALID,0,INVALID,163.708,VALID,0,VALID,23.5266,VALID,6,VALID,0.142188,
2010-11-08, 00:23:04,VALID,1004.69,VALID,0,INVALID,163.731,VALID,0,VALID,23.5266,VALID,6,VALID,0.657812,
2010-11-08, 00:24:04,VALID,1004.68,VALID,0,INVALID,163.731,VALID,0,VALID,23.546,VALID,6,VALID,0.491016,
2010-11-08, 00:25:04,VALID,1004.66,VALID,0,INVALID,163.723,VALID,0,VALID,23.546,VALID,6,VALID,0.465234,
2010-11-08, 00:26:04,VALID,1004.66,VALID,0,INVALID,163.739,VALID,0.100563,VALID,23.5053,VALID,6,VALID,0.528906,
2010-11-08, 00:27:04,VALID,1004.62,VALID,0,INVALID,163.731,VALID,0.100563,VALID,23.5266,VALID,6,VALID,0.501562,
2010-11-08, 00:28:04,VALID,1004.64,VALID,0,INVALID,163.731,VALID,0.100563,VALID,23.5053,VALID,6,VALID,0.609766,
2010-11-08, 00:29:04,VALID,1004.6,VALID,0,INVALID,163.731,VALID,0,VALID,23.5071,VALID,6,VALID,0.680078,
2010-11-08, 00:30:04,VALID,1004.63,VALID,0,INVALID,163.708,VALID,0.100563,VALID,23.5266,VALID,6,VALID,0.551172,
2010-11-08, 00:31:04,VALID,1004.62,VALID,0,INVALID,163.723,VALID,0.100563,VALID,23.5053,VALID,6,VALID,0.599609,
2010-11-08, 00:32:04,VALID,1004.62,VALID,0,INVALID,163.723,VALID,0,VALID,23.5248,VALID,6,VALID,0.641406,
2010-11-08, 00:33:04,VALID,1004.6,VALID,0,INVALID,163.731,VALID,0,VALID,23.546,VALID,6,VALID,0.465234,
2010-11-08, 00:34:04,VALID,1004.59,VALID,0,INVALID,163.701,VALID,0,VALID,23.5655,VALID,6,VALID,0.341016,
2010-11-08, 00:35:04,VALID,1004.58,VALID,0,INVALID,163.716,VALID,0,VALID,23.5655,VALID,6,VALID,0.24375,
2010-11-08, 00:36:04,VALID,1004.56,VALID,0,INVALID,163.716,VALID,0,VALID,23.5443,VALID,6,VALID,0.222656,
2010-11-08, 00:37:04,VALID,1004.54,VALID,0,INVALID,163.701,VALID,0,VALID,23.5655,VALID,6,VALID,0,
2010-11-08, 00:38:04,VALID,1004.57,VALID,0,INVALID,163.723,VALID,0,VALID,23.5655,VALID,6,VALID,0,
2010-11-08, 00:39:04,VALID,1004.59,VALID,0,INVALID,163.708,VALID,0.100563,VALID,23.5637,VALID,6,VALID,0,
2010-11-08, 00:40:04,VALID,1004.57,VALID,0,INVALID,163.701,VALID,0,VALID,23.585,VALID,6,VALID,0,
2010-11-08, 00:41:04,VALID,1004.56,VALID,0,INVALID,163.708,VALID,0,VALID,23.585,VALID,6,VALID,0,
2010-11-08, 00:42:04,VALID,1004.57,VALID,0,INVALID,163.701,VALID,0,VALID,23.6044,VALID,6,VALID,0,
2010-11-08, 00:43:04,VALID,1004.55,VALID,0,INVALID,163.708,VALID,0,VALID,23.6062,VALID,6,VALID,0,
2010-11-08, 00:44:04,VALID,1004.53,VALID,0,INVALID,163.693,VALID,0,VALID,23.5832,VALID,6,VALID,0,
2010-11-08, 00:45:04,VALID,1004.51,VALID,0,INVALID,163.723,VALID,0,VALID,23.6044,VALID,6,VALID,0,
2010-11-08, 00:46:04,VALID,1004.5,VALID,0,INVALID,163.701,VALID,0,VALID,23.5832,VALID,6,VALID,0,
2010-11-08, 00:47:04,VALID,1004.51,VALID,0,INVALID,163.701,VALID,0,VALID,23.5832,VALID,6,VALID,0,
2010-11-08, 00:48:04,VALID,1004.47,VALID,0,INVALID,163.708,VALID,0,VALID,23.585,VALID,6,VALID,0,
2010-11-08, 00:49:04,VALID,1004.46,VALID,0,INVALID,163.708,VALID,0,VALID,23.5832,VALID,6,VALID,0,
2010-11-08, 00:50:04,VALID,1004.45,VALID,0,INVALID,163.693,VALID,0,VALID,23.6026,VALID,6,VALID,0,
2010-11-08, 00:51:04,VALID,1004.45,VALID,0,INVALID,163.716,VALID,0,VALID,23.6239,VALID,6,VALID,0,
2010-11-08, 00:52:04,VALID,1004.42,VALID,0,INVALID,163.701,VALID,0,VALID,23.6257,VALID,6,VALID,0,
2010-11-08, 00:53:04,VALID,1004.43,VALID,0,INVALID,163.708,VALID,0,VALID,23.585,VALID,6,VALID,0,
2010-11-08, 00:54:04,VALID,1004.42,VALID,0,INVALID,163.708,VALID,0,VALID,23.585,VALID,6,VALID,0,
2010-11-08, 00:55:04,VALID,1004.41,VALID,0,INVALID,163.708,VALID,0,VALID,23.5655,VALID,6,VALID,0,
2010-11-08, 00:56:04,VALID,1004.33,VALID,0,INVALID,163.701,VALID,0,VALID,23.546,VALID,6,VALID,0,
2010-11-08, 00:57:04,VALID,1004.33,VALID,0,INVALID,163.708,VALID,0,VALID,23.5266,VALID,6,VALID,0,
2010-11-08, 00:58:04,VALID,1004.32,VALID,0,INVALID,163.701,VALID,0.100563,VALID,23.5071,VALID,6,VALID,0,
2010-11-08, 00:59:04,VALID,1004.28,VALID,0,INVALID,163.716,VALID,0,VALID,23.5071,VALID,6,VALID,0,
2010-11-08, 01:00:04,VALID,1004.28,VALID,0,INVALID,163.731,VALID,0,VALID,23.4877,VALID,6,VALID,0,
2010-11-08, 01:01:04,VALID,1004.26,VALID,0,INVALID,163.739,VALID,0,VALID,23.4664,VALID,6,VALID,0,
2010-11-08, 01:02:04,VALID,1004.26,VALID,0,INVALID,163.701,VALID,0,VALID,23.4877,VALID,6,VALID,0,
2010-11-08, 01:03:04,VALID,1004.25,VALID,0,INVALID,163.716,VALID,0,VALID,23.4682,VALID,6,VALID,0,
2010-11-08, 01:04:04,VALID,1004.26,VALID,0,INVALID,163.708,VALID,0.100563,VALID,23.4877,VALID,6,VALID,0,
2010-11-08, 01:05:04,VALID,1004.26,VALID,0,INVALID,163.723,VALID,0.100563,VALID,23.4877,VALID,6,VALID,0,
2010-11-08, 01:06:04,VALID,1004.25,VALID,0,INVALID,163.723,VALID,0,VALID,23.4877,VALID,6,VALID,0,
2010-11-08, 01:07:04,VALID,1004.23,VALID,0,INVALID,163.731,VALID,0,VALID,23.4859,VALID,6,VALID,0,
2010-11-08, 01:08:04,VALID,1004.23,VALID,0,INVALID,163.731,VALID,0,VALID,23.5266,VALID,6,VALID,0,
2010-11-08, 01:09:04,VALID,1004.23,VALID,0,INVALID,163.716,VALID,0,VALID,23.546,VALID,6,VALID,0,
2010-11-08, 01:10:04,VALID,1004.22,VALID,0,INVALID,163.708,VALID,0,VALID,23.5655,VALID,6,VALID,0.401953,
2010-11-08, 01:11:04,VALID,1004.21,VALID,0,INVALID,163.708,VALID,0,VALID,23.5655,VALID,6,VALID,0.45,
2010-11-08, 01:12:04,VALID,1004.18,VALID,0,INVALID,163.701,VALID,0.100563,VALID,23.5655,VALID,6,VALID,0.385938,
2010-11-08, 01:13:04,VALID,1004.16,VALID,0,INVALID,163.708,VALID,0,VALID,23.5266,VALID,6,VALID,0.301953,
2010-11-08, 01:14:04,VALID,1004.19,VALID,0,INVALID,163.731,VALID,0,VALID,23.4487,VALID,6,VALID,0.524219,
2010-11-08, 01:15:04,VALID,1004.17,VALID,0,INVALID,163.731,VALID,0,VALID,23.4487,VALID,4,VALID,0.531641,
2010-11-08, 01:16:04,VALID,1004.15,VALID,0,INVALID,163.708,VALID,0,VALID,23.4487,VALID,360,VALID,0.603125,
2010-11-08, 01:17:04,VALID,1004.16,VALID,0,INVALID,163.716,VALID,0,VALID,23.4487,VALID,360,VALID,0.423438,
2010-11-08, 01:18:04,VALID,1004.16,VALID,0,INVALID,163.739,VALID,0,VALID,23.4098,VALID,360,VALID,0.346484,
2010-11-08, 01:19:04,VALID,1004.15,VALID,0,INVALID,163.739,VALID,0.100563,VALID,23.4098,VALID,360,VALID,0.407813,
2010-11-08, 01:20:04,VALID,1004.15,VALID,0,INVALID,163.723,VALID,0,VALID,23.3904,VALID,360,VALID,0.4125,
2010-11-08, 01:21:04,VALID,1004.17,VALID,0,INVALID,163.731,VALID,0,VALID,23.3904,VALID,360,VALID,0.570313,
2010-11-08, 01:22:04,VALID,1004.2,VALID,0,INVALID,163.716,VALID,0,VALID,23.4098,VALID,360,VALID,0.719531,
2010-11-08, 01:23:04,VALID,1004.2,VALID,0,INVALID,163.723,VALID,0,VALID,23.4098,VALID,360,VALID,0.582422,
2010-11-08, 01:24:04,VALID,1004.2,VALID,0,INVALID,163.731,VALID,0,VALID,23.4293,VALID,360,VALID,0.617969,
2010-11-08, 01:25:04,VALID,1004.19,VALID,0,INVALID,163.731,VALID,0,VALID,23.4293,VALID,360,VALID,0.56875,
2010-11-08, 01:26:04,VALID,1004.15,VALID,0,INVALID,163.723,VALID,0,VALID,23.4487,VALID,360,VALID,0.568359,
2010-11-08, 01:27:04,VALID,1004.17,VALID,0,INVALID,163.723,VALID,0,VALID,23.4293,VALID,360,VALID,0.625781,
2010-11-08, 01:28:04,VALID,1004.16,VALID,0,INVALID,163.746,VALID,0,VALID,23.4293,VALID,360,VALID,0.626562,
2010-11-08, 01:29:04,VALID,1004.19,VALID,0,INVALID,163.723,VALID,0,VALID,23.4098,VALID,360,VALID,0.554688,
2010-11-08, 01:30:04,VALID,1004.19,VALID,0,INVALID,163.708,VALID,0,VALID,23.4098,VALID,360,VALID,0.603906,
2010-11-08, 01:31:04,VALID,1004.16,VALID,0,INVALID,163.739,VALID,0,VALID,23.408,VALID,360,VALID,0.434766,
2010-11-08, 01:32:04,VALID,1004.16,VALID,0,INVALID,163.731,VALID,0,VALID,23.3886,VALID,360,VALID,0.333594,
2010-11-08, 01:33:04,VALID,1004.18,VALID,0,INVALID,163.708,VALID,0,VALID,23.3709,VALID,360,VALID,0.290234,
2010-11-08, 01:34:04,VALID,1004.17,VALID,0,INVALID,163.723,VALID,0,VALID,23.3727,VALID,360,VALID,0.314844,
2010-11-08, 01:35:04,VALID,1004.19,VALID,0,INVALID,163.716,VALID,0,VALID,23.3921,VALID,360,VALID,0.406641,
2010-11-08, 01:36:04,VALID,1004.16,VALID,0,INVALID,163.739,VALID,0,VALID,23.3514,VALID,360,VALID,0.428516,
2010-11-08, 01:37:04,VALID,1004.19,VALID,0,INVALID,163.716,VALID,0,VALID,23.3921,VALID,360,VALID,0.385547,
2010-11-08, 01:38:04,VALID,1004.19,VALID,0,INVALID,163.723,VALID,0,VALID,23.4328,VALID,360,VALID,0.482031,
2010-11-08, 01:39:04,VALID,1004.2,VALID,0,INVALID,163.716,VALID,0,VALID,23.3904,VALID,360,VALID,0.397266,
2010-11-08, 01:40:04,VALID,1004.21,VALID,0,INVALID,163.723,VALID,0,VALID,23.3921,VALID,360,VALID,0.492969,
2010-11-08, 01:41:04,VALID,1004.2,VALID,0,INVALID,163.731,VALID,0,VALID,23.4311,VALID,360,VALID,0.459375,
2010-11-08, 01:42:04,VALID,1004.21,VALID,0,INVALID,163.723,VALID,0,VALID,23.4098,VALID,360,VALID,0.3375,
2010-11-08, 01:43:04,VALID,1004.21,VALID,0,INVALID,163.701,VALID,0,VALID,23.4098,VALID,360,VALID,0.4,
2010-11-08, 01:44:04,VALID,1004.17,VALID,0,INVALID,163.708,VALID,0,VALID,23.4098,VALID,360,VALID,0.432813,
2010-11-08, 01:45:04,VALID,1004.15,VALID,0,INVALID,163.716,VALID,0,VALID,23.4116,VALID,360,VALID,0.551953,
2010-11-08, 01:46:04,VALID,1004.16,VALID,0,INVALID,163.723,VALID,0,VALID,23.4116,VALID,360,VALID,0.476172,
2010-11-08, 01:47:04,VALID,1004.17,VALID,0,INVALID,163.685,VALID,0,VALID,23.3727,VALID,360,VALID,0.529688,
2010-11-08, 01:48:04,VALID,1004.19,VALID,0,INVALID,163.723,VALID,0,VALID,23.3532,VALID,360,VALID,0.280859,
2010-11-08, 01:49:04,VALID,1004.21,VALID,0,INVALID,163.739,VALID,0,VALID,23.332,VALID,360,VALID,0.410937,
2010-11-08, 01:50:04,VALID,1004.19,VALID,0,INVALID,163.731,VALID,0,VALID,23.3532,VALID,360,VALID,0.39375,
2010-11-08, 01:51:04,VALID,1004.17,VALID,0,INVALID,163.746,VALID,0,VALID,23.3727,VALID,360,VALID,0.351953,
2010-11-08, 01:52:04,VALID,1004.18,VALID,0,INVALID,163.731,VALID,0,VALID,23.3709,VALID,360,VALID,0.283594,
2010-11-08, 01:53:04,VALID,1004.15,VALID,0,INVALID,163.708,VALID,0,VALID,23.3921,VALID,360,VALID,0.35625,
2010-11-08, 01:54:04,VALID,1004.18,VALID,0,INVALID,163.739,VALID,0,VALID,23.3921,VALID,360,VALID,0.309375,
2010-11-08, 01:55:04,VALID,1004.16,VALID,0,INVALID,163.723,VALID,0,VALID,23.3727,VALID,360,VALID,0.383594,
2010-11-08, 01:56:04,VALID,1004.16,VALID,0,INVALID,163.739,VALID,0,VALID,23.3727,VALID,360,VALID,0.466016,
2010-11-08, 01:57:04,VALID,1004.18,VALID,0,INVALID,163.731,VALID,0,VALID,23.3532,VALID,360,VALID,0.514844,
2010-11-08, 01:58:04,VALID,1004.14,VALID,0,INVALID,163.716,VALID,0,VALID,23.332,VALID,360,VALID,0.547656,
2010-11-08, 01:59:04,VALID,1004.11,VALID,0,INVALID,163.708,VALID,0,VALID,23.332,VALID,360,VALID,0.55,
2010-11-08, 02:00:04,VALID,1004.13,VALID,0,INVALID,163.708,VALID,0,VALID,23.3125,VALID,360,VALID,0.515234,
2010-11-08, 02:01:04,VALID,1004.08,VALID,0,INVALID,163.723,VALID,0,VALID,23.2931,VALID,360,VALID,0.403906,
2010-11-08, 02:02:04,VALID,1004.11,VALID,0,INVALID,163.731,VALID,0,VALID,23.2754,VALID,360,VALID,0.540234,
2010-11-08, 02:03:04,VALID,1004.14,VALID,0,INVALID,163.746,VALID,0,VALID,23.2364,VALID,360,VALID,0.5625,
2010-11-08, 02:04:04,VALID,1004.13,VALID,0,INVALID,163.746,VALID,0,VALID,23.217,VALID,360,VALID,0.713281,
2010-11-08, 02:05:04,VALID,1004.1,VALID,0,INVALID,163.708,VALID,0.100563,VALID,23.217,VALID,360,VALID,0.642578,
2010-11-08, 02:06:04,VALID,1004.11,VALID,0,INVALID,163.731,VALID,0.100563,VALID,23.1957,VALID,360,VALID,0.550781,
2010-11-08, 02:07:04,VALID,1004.12,VALID,0,INVALID,163.739,VALID,0,VALID,23.1763,VALID,360,VALID,0.34375,
2010-11-08, 02:08:04,VALID,1004.09,VALID,0,INVALID,163.739,VALID,0.100563,VALID,23.1339,VALID,360,VALID,0.260156,
2010-11-08, 02:09:04,VALID,1004.11,VALID,0,INVALID,163.754,VALID,0.100563,VALID,23.1763,VALID,360,VALID,0.364062,
2010-11-08, 02:10:04,VALID,1004.11,VALID,0,INVALID,163.731,VALID,0.100563,VALID,23.194,VALID,360,VALID,0.417969,
2010-11-08, 02:11:04,VALID,1004.09,VALID,0,INVALID,163.739,VALID,0.100563,VALID,23.194,VALID,360,VALID,0.400781,
2010-11-08, 02:12:04,VALID,1004.08,VALID,0,INVALID,163.716,VALID,0.100563,VALID,23.2347,VALID,360,VALID,0.526953,
2010-11-08, 02:13:04,VALID,1004.07,VALID,0,INVALID,163.746,VALID,0,VALID,23.2134,VALID,360,VALID,0.534375,
2010-11-08, 02:14:04,VALID,1004.05,VALID,0,INVALID,163.723,VALID,0.100563,VALID,23.2134,VALID,360,VALID,0.445703,
2010-11-08, 02:15:04,VALID,1004.05,VALID,0,INVALID,163.731,VALID,0.100563,VALID,23.2152,VALID,358,VALID,0.382031,
2010-11-08, 02:16:04,VALID,1004.04,VALID,0,INVALID,163.739,VALID,0.100563,VALID,23.1745,VALID,358,VALID,0.316016,
2010-11-08, 02:17:04,VALID,1004.05,VALID,0,INVALID,163.731,VALID,0,VALID,23.1745,VALID,358,VALID,0.324219,
2010-11-08, 02:18:04,VALID,1004.04,VALID,0,INVALID,163.716,VALID,0,VALID,23.1763,VALID,358,VALID,0.330078,
2010-11-08, 02:19:04,VALID,1004.03,VALID,0,INVALID,163.723,VALID,0.100563,VALID,23.2152,VALID,358,VALID,0.428125,
2010-11-08, 02:20:04,VALID,1004.03,VALID,0,INVALID,163.739,VALID,0,VALID,23.194,VALID,358,VALID,0.531641,
2010-11-08, 02:21:04,VALID,1004.01,VALID,0,INVALID,163.716,VALID,0.100563,VALID,23.2134,VALID,358,VALID,0.549609,
2010-11-08, 02:22:04,VALID,1003.97,VALID,0,INVALID,163.723,VALID,0.100563,VALID,23.2541,VALID,357,VALID,0.650781,
2010-11-08, 02:23:04,VALID,1003.94,VALID,0,INVALID,163.693,VALID,0.100563,VALID,23.2524,VALID,353,VALID,0.648828,
2010-11-08, 02:24:04,VALID,1003.9,VALID,0,INVALID,163.708,VALID,0,VALID,23.332,VALID,353,VALID,0.54375,
2010-11-08, 02:25:04,VALID,1003.89,VALID,0,INVALID,163.716,VALID,0,VALID,23.3514,VALID,352,VALID,0.465234,
2010-11-08, 02:26:04,VALID,1003.86,VALID,0,INVALID,163.723,VALID,0.100563,VALID,23.3514,VALID,352,VALID,0.607031,
2010-11-08, 02:27:04,VALID,1003.87,VALID,0,INVALID,163.693,VALID,0,VALID,23.3302,VALID,352,VALID,0.518359,
2010-11-08, 02:28:04,VALID,1003.86,VALID,0,INVALID,163.708,VALID,0.100563,VALID,23.3107,VALID,352,VALID,0.574609,
2010-11-08, 02:29:04,VALID,1003.86,VALID,0,INVALID,163.701,VALID,0,VALID,23.2913,VALID,352,VALID,0.567578,
2010-11-08, 02:30:04,VALID,1003.86,VALID,0,INVALID,163.708,VALID,0.100563,VALID,23.2913,VALID,352,VALID,0.533594,
2010-11-08, 02:31:04,VALID,1003.82,VALID,0,INVALID,163.723,VALID,0.100563,VALID,23.2931,VALID,352,VALID,0.530859,
2010-11-08, 02:32:04,VALID,1003.81,VALID,0,INVALID,163.731,VALID,0,VALID,23.2718,VALID,352,VALID,0.495703,
2010-11-08, 02:33:04,VALID,1003.79,VALID,0,INVALID,163.693,VALID,0,VALID,23.2329,VALID,352,VALID,0.534375,
2010-11-08, 02:34:04,VALID,1003.77,VALID,0,INVALID,163.731,VALID,0,VALID,23.2541,VALID,352,VALID,0.479297,
2010-11-08, 02:35:04,VALID,1003.73,VALID,0,INVALID,163.731,VALID,0,VALID,23.2541,VALID,353,VALID,0.592578,
2010-11-08, 02:36:04,VALID,1003.73,VALID,0,INVALID,163.716,VALID,0,VALID,23.2736,VALID,357,VALID,0.641016,
2010-11-08, 02:37:04,VALID,1003.74,VALID,0,INVALID,163.678,VALID,0,VALID,23.2931,VALID,359,VALID,0.704297,
2010-11-08, 02:38:04,VALID,1003.75,VALID,0,INVALID,163.701,VALID,0,VALID,23.3125,VALID,360,VALID,0.633594,
2010-11-08, 02:39:04,VALID,1003.72,VALID,0,INVALID,163.708,VALID,0,VALID,23.3125,VALID,360,VALID,0.525,
2010-11-08, 02:40:04,VALID,1003.72,VALID,0,INVALID,163.708,VALID,0,VALID,23.3125,VALID,360,VALID,0.346875,
2010-11-08, 02:41:04,VALID,1003.72,VALID,0,INVALID,163.708,VALID,0,VALID,23.332,VALID,360,VALID,0.495313,
2010-11-08, 02:42:04,VALID,1003.73,VALID,0,INVALID,163.716,VALID,0,VALID,23.3125,VALID,360,VALID,0.429297,
2010-11-08, 02:43:04,VALID,1003.74,VALID,0,INVALID,163.716,VALID,0,VALID,23.2931,VALID,360,VALID,0.41875,
2010-11-08, 02:44:04,VALID,1003.75,VALID,0,INVALID,163.723,VALID,0,VALID,23.2329,VALID,360,VALID,0.375,
2010-11-08, 02:45:04,VALID,1003.75,VALID,0,INVALID,163.716,VALID,0,VALID,23.2948,VALID,360,VALID,0.359375,
2010-11-08, 02:46:04,VALID,1003.78,VALID,0,INVALID,163.731,VALID,0,VALID,23.2524,VALID,360,VALID,0.265625,
2010-11-08, 02:47:04,VALID,1003.77,VALID,0,INVALID,163.723,VALID,0,VALID,23.2736,VALID,360,VALID,0.330078,
2010-11-08, 02:48:04,VALID,1003.77,VALID,0,INVALID,163.716,VALID,0,VALID,23.2736,VALID,360,VALID,0.223047,
2010-11-08, 02:49:04,VALID,1003.76,VALID,0,INVALID,163.708,VALID,0,VALID,23.2736,VALID,360,VALID,0.0242187,
2010-11-08, 02:50:04,VALID,1003.77,VALID,0,INVALID,163.693,VALID,0,VALID,23.2541,VALID,360,VALID,0,
2010-11-08, 02:51:04,VALID,1003.77,VALID,0,INVALID,163.708,VALID,0,VALID,23.2754,VALID,360,VALID,0,
2010-11-08, 02:52:04,VALID,1003.75,VALID,0,INVALID,163.701,VALID,0,VALID,23.2736,VALID,360,VALID,0,
2010-11-08, 02:53:04,VALID,1003.75,VALID,0,INVALID,163.739,VALID,0,VALID,23.3125,VALID,360,VALID,0.405469,
2010-11-08, 02:54:04,VALID,1003.79,VALID,0,INVALID,163.708,VALID,0,VALID,23.3532,VALID,360,VALID,0.427344,
2010-11-08, 02:55:04,VALID,1003.75,VALID,0,INVALID,163.723,VALID,0,VALID,23.3514,VALID,360,VALID,0.488281,
2010-11-08, 02:56:04,VALID,1003.75,VALID,0,INVALID,163.693,VALID,0,VALID,23.4098,VALID,360,VALID,0.276563,
2010-11-08, 02:57:04,VALID,1003.72,VALID,0,INVALID,163.693,VALID,0,VALID,23.3904,VALID,360,VALID,0.405078,
2010-11-08, 02:58:04,VALID,1003.77,VALID,0,INVALID,163.701,VALID,0,VALID,23.3514,VALID,360,VALID,0.558594,
2010-11-08, 02:59:04,VALID,1003.72,VALID,0,INVALID,163.701,VALID,0,VALID,23.3125,VALID,360,VALID,0.559375,
2010-11-08, 03:00:04,VALID,1003.73,VALID,0,INVALID,163.708,VALID,0,VALID,23.2931,VALID,360,VALID,0.505078,
2010-11-08, 03:01:04,VALID,1003.73,VALID,0,INVALID,163.708,VALID,0,VALID,23.3125,VALID,360,VALID,0.546094,
2010-11-08, 03:02:04,VALID,1003.73,VALID,0,INVALID,163.708,VALID,0,VALID,23.332,VALID,360,VALID,0.364844,
2010-11-08, 03:03:04,VALID,1003.69,VALID,0,INVALID,163.723,VALID,0,VALID,23.3143,VALID,360,VALID,0.352734,
2010-11-08, 03:04:04,VALID,1003.66,VALID,0,INVALID,163.693,VALID,0,VALID,23.2931,VALID,360,VALID,0.361328,
2010-11-08, 03:05:04,VALID,1003.67,VALID,0,INVALID,163.708,VALID,0,VALID,23.3125,VALID,360,VALID,0.527344,
2010-11-08, 03:06:04,VALID,1003.65,VALID,0,INVALID,163.716,VALID,0,VALID,23.2931,VALID,360,VALID,0.466016,
2010-11-08, 03:07:04,VALID,1003.64,VALID,0,INVALID,163.693,VALID,0,VALID,23.3337,VALID,360,VALID,0.607813,
2010-11-08, 03:08:04,VALID,1003.64,VALID,0,INVALID,163.678,VALID,0,VALID,23.3532,VALID,360,VALID,0.816406,
2010-11-08, 03:09:04,VALID,1003.65,VALID,0,INVALID,163.685,VALID,0,VALID,23.3532,VALID,360,VALID,0.667969,
2010-11-08, 03:10:04,VALID,1003.66,VALID,0,INVALID,163.685,VALID,0,VALID,23.3532,VALID,360,VALID,0.646875,
2010-11-08, 03:11:04,VALID,1003.64,VALID,0,INVALID,163.701,VALID,0,VALID,23.3337,VALID,360,VALID,0.676562,
2010-11-08, 03:12:04,VALID,1003.64,VALID,0,INVALID,163.701,VALID,0,VALID,23.2948,VALID,360,VALID,0.710938,
2010-11-08, 03:13:04,VALID,1003.66,VALID,0,INVALID,163.685,VALID,0,VALID,23.2559,VALID,360,VALID,0.580859,
2010-11-08, 03:14:04,VALID,1003.65,VALID,0,INVALID,163.701,VALID,0,VALID,23.2559,VALID,360,VALID,0.460547,
2010-11-08, 03:15:04,VALID,1003.63,VALID,0,INVALID,163.723,VALID,0,VALID,23.2559,VALID,360,VALID,0.288281,
2010-11-08, 03:16:04,VALID,1003.61,VALID,0,INVALID,163.693,VALID,0,VALID,23.2771,VALID,360,VALID,0.206641,
2010-11-08, 03:17:04,VALID,1003.64,VALID,0,INVALID,163.685,VALID,0,VALID,23.2559,VALID,360,VALID,0,
2010-11-08, 03:18:04,VALID,1003.63,VALID,0,INVALID,163.693,VALID,0,VALID,23.2754,VALID,360,VALID,0.0886719,
2010-11-08, 03:19:04,VALID,1003.61,VALID,0,INVALID,163.693,VALID,0,VALID,23.3125,VALID,6,VALID,0.347266,
2010-11-08, 03:20:04,VALID,1003.61,VALID,0,INVALID,163.586,VALID,0,VALID,23.3921,VALID,6,VALID,0.299609,
2010-11-08, 03:21:04,VALID,1003.64,VALID,0,INVALID,163.456,VALID,0,VALID,23.4487,VALID,6,VALID,0.473437,
2010-11-08, 03:22:04,VALID,1003.64,VALID,0,INVALID,163.449,VALID,0,VALID,23.4487,VALID,6,VALID,0.583203,
2010-11-08, 03:23:04,VALID,1003.62,VALID,0,INVALID,163.479,VALID,0,VALID,23.4293,VALID,6,VALID,0.596484,
2010-11-08, 03:24:04,VALID,1003.62,VALID,0,INVALID,163.586,VALID,0,VALID,23.3904,VALID,6,VALID,0.474219,
2010-11-08, 03:25:04,VALID,1003.61,VALID,0,INVALID,163.548,VALID,0,VALID,23.3709,VALID,6,VALID,0.484375,
2010-11-08, 03:26:04,VALID,1003.58,VALID,0,INVALID,163.235,VALID,0,VALID,23.4682,VALID,6,VALID,0.553125,
2010-11-08, 03:27:04,VALID,1003.56,VALID,0,INVALID,162.93,VALID,0,VALID,23.5266,VALID,5,VALID,0.618359,
2010-11-08, 03:28:04,VALID,1003.57,VALID,0,INVALID,163.121,VALID,0,VALID,23.4877,VALID,4,VALID,0.616797,
2010-11-08, 03:29:04,VALID,1003.58,VALID,0,INVALID,163.441,VALID,0,VALID,23.4293,VALID,4,VALID,0.867578,
2010-11-08, 03:30:04,VALID,1003.56,VALID,0,INVALID,163.647,VALID,0,VALID,23.3727,VALID,3,VALID,0.841406,
2010-11-08, 03:31:04,VALID,1003.58,VALID,0,INVALID,163.655,VALID,0,VALID,23.3125,VALID,3,VALID,0.81875,
2010-11-08, 03:32:04,VALID,1003.56,VALID,0,INVALID,163.67,VALID,0,VALID,23.2931,VALID,2,VALID,0.653906,
2010-11-08, 03:33:04,VALID,1003.57,VALID,0,INVALID,163.624,VALID,0,VALID,23.2931,VALID,2,VALID,0.719531,
2010-11-08, 03:34:04,VALID,1003.58,VALID,0,INVALID,163.563,VALID,0,VALID,23.3125,VALID,360,VALID,0.551562,
2010-11-08, 03:35:04,VALID,1003.53,VALID,0,INVALID,163.517,VALID,0,VALID,23.3125,VALID,360,VALID,0.50625,
2010-11-08, 03:36:04,VALID,1003.53,VALID,0,INVALID,163.464,VALID,0,VALID,23.3337,VALID,360,VALID,0.453516,
2010-11-08, 03:37:04,VALID,1003.5,VALID,0,INVALID,163.395,VALID,0,VALID,23.3532,VALID,360,VALID,0.595703,
2010-11-08, 03:38:04,VALID,1003.49,VALID,0,INVALID,163.342,VALID,0,VALID,23.3532,VALID,360,VALID,0.646875,
2010-11-08, 03:39:04,VALID,1003.51,VALID,0,INVALID,163.365,VALID,0,VALID,23.3532,VALID,360,VALID,0.516016,
2010-11-08, 03:40:04,VALID,1003.48,VALID,0,INVALID,163.296,VALID,0,VALID,23.3727,VALID,360,VALID,0.583203,
2010-11-08, 03:41:04,VALID,1003.48,VALID,0,INVALID,163.258,VALID,0,VALID,23.3514,VALID,360,VALID,0.512891,
2010-11-08, 03:42:04,VALID,1003.47,VALID,0,INVALID,163.327,VALID,0,VALID,23.332,VALID,360,VALID,0.45625,